User: anonymous   Login
Location: Unspecified
(0.0000°N, 0.0000°E)
Time: 10:30:22
(UTC+00:00)
Language:

SEEDS - Orbit

View from above orbital plane
View from above orbital plane
View from above satellite
View from above satellite

Ground track
Ground track

The orbit data is extracted from the following two-line orbital elements,

1 32791U 08021J   19017.74157768  .00000149  00000-0  20570-4 0  9998
2 32791  97.5297  30.4378 0014090  30.0660 330.1365 14.90715069581475
Epoch (UTC): 17 January 2019 17:47:52
Eccentricity: 0.0014090
inclination: 97.5297°
perigee height: 586 km
apogee height: 605 km
right ascension of ascending node: 30.4378°
argument of perigee: 30.0660°
revolutions per day: 14.90715069
mean anomaly at epoch: 330.1365°
orbit number at epoch: 58147

The dashed part of the orbit path shows where the satellite is in the earth's shadow,  

DLR